Regional Weather Roundup
Issued by NWS

Home | Current Version | Previous Version | Graphics & Text | Print | Product List | Glossary Off
Versions: 1 2 3 4 5 6 7 8 9 10 11 12 13 14 15 16 17 18 19 20 21 22 23 24 25 26 27 28 29 30 31 32 33 34 35 36 37 38 39 40 41 42 43 44 45 46 47 48 49 50

000
ASUS43 KMPX 290310
RWRMN
WEATHER ROUNDUP FOR MINNESOTA
NATIONAL WEATHER SERVICE TWIN CITIES/CHANHASSEN MN
900 PM CST WED JAN 28 2015


NOTE: "FAIR" INDICATES FEW OR NO CLOUDS BELOW 12,000 FEET WITH NO
SIGNIFICANT WEATHER AND/OR OBSTRUCTIONS TO VISIBILITY. N/A MEANS
CURRENT SKY AND/OR WEATHER CONDITIONS ARE NOT AVAILABLE.

MNZ060>063-068>070-290400-
   Twin Cities Metro

CITY           SKY/WX    TMP DP  RH WIND       PRES   REMARKS
TWIN CITIES    FRZ DRZL  30  28  92 VRB5      29.83S FOG     WCI  25
ST PAUL        CLOUDY    31  30  96 CALM      29.85R FOG
CRYSTAL        CLOUDY    31  29  92 N5        29.83R FOG     WCI  26
BLAINE         FRZ DRZL  32  32 100 N3        29.83S VSB 1
LAKEVILLE      CLOUDY    28  28 100 NE5       29.82R FOG     WCI  23
EDEN PRAIRIE   FOG       31  29  92 NE5       29.82R VSB 1   WCI  26
SOUTH ST PAUL  MOCLDY    31  30  95 CALM      29.83S FOG
LAKE ELMO      CLOUDY    32  30  93 N3        29.84R FOG
$$
MNZ001>005-007-008-013>017-022>024-027-028-290400-
   Northwest Minnesota

CITY           SKY/WX    TMP DP  RH WIND       PRES   REMARKS
BEMIDJI        CLOUDY    32  31  98 NW9       29.85R FOG     WCI  24
HALLOCK        CLOUDY    21  19  93 NW24G33   30.01R WCI   4
ROSEAU         CLOUDY    30  27  86 NW17      29.92R WCI  18
WARROAD        CLOUDY    30  27  86 NW13      29.90R WCI  20
THIEF RVR FALL CLOUDY    27  27 100 NW23      29.94R WCI  12
CROOKSTON      CLOUDY    27  27 100 N24       29.98R WCI  12
FOSSTON        MIX PCPN  30  28  93 NW14G22   29.90R WCI  20
DETROIT LAKES  CLOUDY    32  32 100 N16G23    29.89R FOG     WCI  21
MOORHEAD       CLOUDY    32  32 100 N23G36    29.96R WCI  19
PARK RAPIDS    CLOUDY    33  31  92 NW7       29.84R FOG     WCI  27
MAHNOMEN       CLOUDY    31  30  97 NW20      29.90R FOG     WCI  19
$$
MNZ006-009>011-018-025>026-290400-
   North Central Minnesota

CITY           SKY/WX    TMP DP  RH WIND       PRES   REMARKS
BAUDETTE       CLOUDY    30  28  92 NW14      29.85R WCI  19
FLAG ISLAND    CLOUDY    28  27  93 NW14      29.88R WCI  17
INTL FALLS     LGT SNOW  27  26  96 CALM      29.82R FOG
WASKISH        LGT SNOW  32  30  93 W7        29.85R WCI  26
BIG FORK       MIX PCPN  28  28 100 CALM      29.83R
LONGVILLE      CLOUDY    28  28 100 CALM      29.84R FOG
GRAND RAPIDS   CLOUDY    27  25  93 SW3       29.82S
CRANE LAKE     CLOUDY    25  25 100 CALM      29.84S FOG
ORR            CLOUDY    27  23  86 CALM      29.80R FOG
COOK           CLOUDY    27  25  93 CALM      29.82S FOG
WALKER         LGT RAIN  31  31  99 W3        29.84R
$$
MNZ012-019>021-037-290400-
   Northeast Minnesota

CITY           SKY/WX    TMP DP  RH WIND       PRES   REMARKS
DULUTH         CLOUDY    28  24  85 W8        29.81F FOG     WCI  20
ELY            CLOUDY    25  25 100 W5        29.80S FOG     WCI  19
HIBBING        CLOUDY    28  24  85 VRB3      29.82S FOG
EVELETH        CLOUDY    27  27 100 SW5       29.83S FOG     WCI  21
DULUTH HARBOR  CLOUDY    30  27  86 CALM      29.86F
TWO HARBORS    CLOUDY    30  25  80 CALM      29.81F
SILVER BAY     CLOUDY    28  25  86 CALM      29.81F
GRAND MARAIS     N/A     30  25  81 VRB3      29.83S
G MARAIS ARPRT   N/A     25  21  86 CALM      29.78S FOG
$$
MNZ029>031-032-039>041-046>048-054>057-064-290400-
   West Central Minnesota

CITY           SKY/WX    TMP DP  RH WIND       PRES   REMARKS
FERGUS FALLS   CLOUDY    32  32 100 N21G28    29.93R WCI  20
WHEATON        CLOUDY    30  30 100 NW21G29   29.95R WCI  17
MORRIS         CLOUDY    34  32  93 NW21G28   29.88R FOG     WCI  22
ALEXANDRIA     CLOUDY    32  30  92 NW7       29.86R FOG     WCI  26
ELBOW LAKE     CLOUDY    32  32 100 NW17G24   29.89R FOG     WCI  21
WADENA         CLOUDY    30  30 100 W5        29.85R FOG     WCI  25
GLENWOOD       CLOUDY    30  30 100 NW8       29.86R FOG     WCI  23
APPLETON       CLOUDY    36  34  93 NW18G25   29.89R FOG
BENSON         MIX PCPN  32  32 100 N6        29.88R VSB 1   WCI  26
ORTONVILLE     CLOUDY    34  30  86 N18G24    29.91R WCI  23
MADISON        CLOUDY    37  36  93 NW24      29.89R FOG
WILLMAR        CLOUDY    34  30  86 N7        29.87R FOG     WCI  28
$$
MNZ033>034-036-042>043-049>051-058-059-290400-
   Central Minnesota

CITY           SKY/WX    TMP DP  RH WIND       PRES   REMARKS
ST CLOUD       CLOUDY    29  28  96 N5        29.85R FOG     WCI  24
SAUK CENTRE    FOG       30  30 100 NW3       29.86R VSB 1
PAYNESVILLE    CLOUDY    28  28 100 NW3       29.86R FOG
AITKIN         HAZE      30  27  86 CALM      29.83S VSB 3/4
PINE RIVER     CLOUDY    28  28 100 CALM      29.88R FOG
BRAINERD       FOG       29  28  96 W5        29.85R VSB 1   WCI  24
STAPLES        FOG       30  30 100 CALM      29.85S VSB 1
LONG PRAIRIE   MIX PCPN  30  30 100 CALM      29.86R VSB 3/4
LITTLE FALLS   FOG       30  28  93 CALM      29.86R VSB 1
LITCHFIELD     CLOUDY    30  30 100 N5        29.85R FOG     WCI  25
BUFFALO        CLOUDY    30  29  95 N5        29.85R FOG     WCI  25
MAPLE LAKE     CLOUDY    31  31  99 N5        29.85R FOG     WCI  26
$$
MNZ037-044-045-052-053-290400-
   East Central Minnesota

CITY           SKY/WX    TMP DP  RH WIND       PRES   REMARKS
PRINCETON      CLOUDY    30  28  93 N3        29.85S FOG
MORA           CLOUDY    28  27  93 CALM      29.86S
CAMBRIDGE      HAZE      30  25  80 CALM      29.83R VSB 1
RUSH CITY      CLOUDY    29  28  96 CALM      29.85S FOG
MOOSE LAKE     CLOUDY    30  28  93 W3        29.82F FOG
HINCKLEY       CLOUDY    30  30 100 CALM      29.84F FOG
CLOQUET        CLOUDY    28  27  93 CALM      29.82F FOG
MCGREGOR       CLOUDY    28  28 100 CALM      29.84S VSB 1/2
$$
MNZ071>073-080-081-089-090-097-098-290400-
   Southwest Minnesota

CITY           SKY/WX    TMP DP  RH WIND       PRES   REMARKS
MONTEVIDEO     FOG       32  32 100 N7        29.88R VSB 1/2 WCI  26
GRANITE FALLS  FOG       32  32  99 NW3       29.88R VSB 1
CANBY          CLOUDY    34  33  96 NW21G30   29.90R FOG     WCI  22
MARSHALL       CLOUDY    32  28  86 N14       29.88R WCI  22
REDWOOD FALLS  FOG       33  32  96 N8        29.84R VSB 3/4 WCI  26
OLIVIA         CLOUDY    32  32 100 N8        29.84R FOG     WCI  25
PIPESTONE      CLOUDY    36  34  93 N15G23    29.85R FOG
WINDOM         CLOUDY    34  34 100 NW9       29.81R FOG     WCI  26
WORTHINGTON    CLOUDY    34  30  86 NW20      29.82R WCI  22
JACKSON        CLOUDY    34  32  93 NW10      29.80R FOG     WCI  26
TRACY          CLOUDY    33  32  97 NW13      29.85R FOG     WCI  24
SLAYTON        CLOUDY    33  32  96 NW16      29.83R FOG     WCI  22
$$
MNZ065>067-074>077-082>085-091>093-290400-
   South Central Minnesota

CITY           SKY/WX    TMP DP  RH WIND       PRES   REMARKS
MANKATO        CLOUDY    34  28  80 N7        29.80R VSB 1   WCI  28
NEW ULM        FOG       32  30  93 N5        29.82R VSB 3/4 WCI  27
ST JAMES       CLOUDY    34  34 100 NW7       29.81R FOG     WCI  28
FAIRMONT       CLOUDY    34  28  80 NW9       29.78R WCI  26
GLENCOE        CLOUDY    33  33 100 N7        29.82R FOG     WCI  26
FARIBAULT      DRIZZLE   32  30  93 N3        29.80S
OWATONNA         N/A     34  30  86 CALM      29.79R FOG
WASECA         MIX PCPN  32  30  93 N3        29.79S
ALBERT LEA     MOCLDY    34  32  93 CALM      29.76R FOG
$$
MNZ078>079-086>088-094>096-290400-
   Southeast Minnesota

CITY           SKY/WX    TMP DP  RH WIND       PRES   REMARKS
ROCHESTER      CLOUDY    31  27  85 E6        29.78S WCI  25
RED WING       CLOUDY    32  28  86 NE3       29.82S FOG
STANTON        CLOUDY    32  30  93 NE6       29.80R WCI  26
DODGE CENTER   CLOUDY    32  30  93 SE6       29.77R FOG     WCI  26
WINONA         CLOUDY    34  27  75 CALM      29.82S
AUSTIN         CLOUDY    34  30  86 E3        29.76S
PRESTON        CLOUDY    31  27  86 CALM      29.78R
$$
ABBREVIATIONS USED IN REMARKS
   TC - TEMPERATURES IN CELSIUS
  WCI - WIND CHILL INDEX
   HX - HEAT INDEX
  VSB - VISIBILITY
$$


USA.gov is the U.S. government's official web portal to all federal, state and local government web resources and services.